{"data":{"norad_id":62563,"epoch":"2026-05-24T23:42:14.351040Z","epoch_age_seconds":80051,"freshness":"FRESH","line1":"1 62563U 25006K   26144.98766610  .00176029  00000+0  13452-2 0  9996","line2":"2 62563  43.0049  39.8530 0002962 259.7538 100.2996 15.70860927 78603","mean_motion":15.70860927,"eccentricity":0.0002962,"inclination_deg":43.0049,"raan_deg":39.853,"arg_perigee_deg":259.7538,"mean_anomaly_deg":100.2996,"bstar":0.0013452,"rev_number":7860,"period_min":91.66947724329,"perigee_km":354.4404686499,"apogee_km":358.43002925017,"semimajor_km":6734.57224895,"source":"CELESTRAK","updated_at":"2026-05-25T13:38:19.708422Z"}}